[Iaude] MPEC V62: 2023 VS1 [a=1.33,e=0.24,i=29.5,H=24.9]
    mpec at marsden.cfa.harvard.edu 
    mpec at marsden.cfa.harvard.edu
       
    Mon Nov  6 06:45:50 EST 2023
    
    
  
M.P.E.C. 2023-V62                              Issued 2023 November 6, 11:44 UT
     The Minor Planet Electronic Circulars contain information on unusual
         minor planets, routine data on comets and natural satellites,
         and occasional editorial announcements.  They are published
    on behalf of Division F of the International Astronomical Union by the
          Minor Planet Center, Smithsonian Astrophysical Observatory,
                          Cambridge, MA 02138, U.S.A.
			  
             Prepared using the Tamkin Foundation Computer Network
                              MPC at CFA.HARVARD.EDU
            URL https://www.minorplanetcenter.net/    ISSN 1523-6714
                                    2023 VS1                                    
Observations:
     K23V01S*1C2023 11 03.16239522 48 05.634+24 41 24.36         19.21GVEV062G96
     K23V01S 1C2023 11 03.16758022 47 58.736+24 44 35.66         19.62GVEV062G96
     K23V01S 1C2023 11 03.17796222 47 44.844+24 51 00.72         19.50GVEV062G96
     K23V01S KC2023 11 03.22222722 46 46.387+25 17 55.50         19.25GVEV062I52
     K23V01S KC2023 11 03.22267422 46 45.750+25 18 10.44         19.63GVEV062I52
     K23V01S KC2023 11 03.22312322 46 45.188+25 18 27.47         19.83GVEV062I52
     K23V01S KC2023 11 03.22357122 46 44.598+25 18 43.85         19.70GVEV062I52
     K23V01S KC2023 11 03.25192122 46 07.08 +25 35 28.2          20.0 GXEV062858
     K23V01S KC2023 11 03.25673522 46 00.89 +25 38 19.9          19.5 GXEV062858
     K23V01S KC2023 11 03.26141722 45 54.90 +25 41 06.8          19.7 GXEV062858
     K23V01S KC2023 11 03.29294522 45 14.980+25 59 55.50         19.64GVEV062I52
     K23V01S KC2023 11 03.29428422 45 13.250+26 00 42.60         19.32GVEV062I52
     K23V01S hC2023 11 03.91635022 33 11.80 +31 33 12.8          19.8 GVEV062L01
     K23V01S hC2023 11 03.91895522 33 08.72 +31 34 27.4          19.8 GVEV062L01
     K23V01S hC2023 11 03.92129922 33 06.06 +31 35 33.0          20.0 GVEV062L01
     K23V01S KC2023 11 03.94755422 32 36.47 +31 48 02.1          19.7 GVEV062204
     K23V01S KC2023 11 03.95529422 32 27.61 +31 51 39.9                VEV062204
     K23V01S KC2023 11 06.07184021 59 16.23 +43 55 45.1          20.8 GXEV062858
     K23V01S KC2023 11 06.07591821 59 12.63 +43 56 44.7          20.8 GXEV062858
Observer details:
204 Schiaparelli Observatory.  Observers L. Buzzi, G. Galli.  0.84-m f/3.5
    reflector + CCD.
858 Tebbutt Observatory, Edgewood.  Observer F. B. Zoltowski.  0.51-m f/8.1
    Schmidt-Cassegrain + CCD.
G96 Mt. Lemmon Survey.  Observer J. B. Fazekas.  Measurers E. C. Beshore, D.
    Fay, J. B. Fazekas, D. C. Fuls, A. R. Gibbs, A. D. Grauer, H. Groeller, J.
    K. Hogan, R. A. Kowalski, S. M. Larson, G. J. Leonard, D. Rankin, R. L.
    Seaman, F. C. Shelly, K. W. Wierzchos.  1.5-m reflector + 10K CCD.
I52 Steward Observatory, Mt. Lemmon Station.  Observer D. Rankin.  Measurers
    E. C. Beshore, D. Fay, J. B. Fazekas, D. C. Fuls, A. R. Gibbs, A. D.
    Grauer, H. Groeller, J. K. Hogan, R. A. Kowalski, S. M. Larson, G. J.
    Leonard, D. Rankin, R. L. Seaman, F. C. Shelly, K. W. Wierzchos.  1.0-m
    prime focus + CCD.
L01 Visnjan Observatory, Tican.  Observers K. Korlevic, L. Poropat.  Measurer
    K. Korlevic.  1.0-m f/2.9 reflector + CCD.
Orbital elements:
2023 VS1                                                 Earth MOID = 0.0209 AU
Epoch 2023 Sept. 13.0 TT = JDT 2460200.5                Veres                   
M 332.51704              (2000.0)            P               Q                  
n   0.64611238     Peri.  352.87322     +0.85792022     -0.41976825             
a   1.3251468      Node    36.94496     +0.49236055     +0.50694035             
e   0.2356851      Incl.   29.53132     +0.14681277     +0.75286526             
P   1.53           H   24.98          G   0.15           U   8                  
Residuals in seconds of arc
231103 G96  0.0   0.1-    231103 858  0.3-  0.7+    231103 L01  0.2+  0.9-
231103 G96  0.3+  0.8-    231103 858  0.2-  0.7+    231103 204  0.0   0.9+
231103 G96 (0.6-  1.1+)   231103 858  0.2+  0.9+    231103 204  0.1+  0.8+
231103 I52  0.1+  0.7+    231103 I52  0.3+  0.5+    231106 858  0.2+  0.4-
231103 I52  0.6-  0.5-    231103 I52  0.1-  0.6+    231106 858  0.2-  0.5+
231103 I52  0.2-  0.3+    231103 L01  0.3+  0.1-
231103 I52  0.3-  0.4+    231103 L01  0.5-  0.2+
Ephemeris:
2023 VS1                 a,e,i = 1.33, 0.24, 30                  q = 1.0128
Date    TT    R. A. (2000) Decl.     Delta      r    Elong.  Phase     V
2023 10 07    06 02 39.8 -66 41 53   0.2284  1.0243    89.7    77.4    24.5
...
2023 10 22    04 17 59.3 -66 15 06   0.09613 1.0133    98.0    76.6    22.6
...
2023 10 30    00 41 05.3 -35 56 00   0.03399 1.0135   125.8    52.6    19.6
...
2023 11 05    22 14 49.5 +38 51 00   0.05030 1.0165   118.3    59.2    20.6
2023 11 06    22 00 13.7 +43 37 48   0.05816 1.0173   114.8    62.2    21.1
2023 11 07    21 47 40.6 +47 09 30   0.06643 1.0181   112.1    64.4    21.4
...
2023 11 13    21 00 33.9 +56 52 51   0.1193  1.0242   103.5    70.0    22.9
...
2023 11 21    20 34 17.2 +61 00 35   0.1911  1.0359    99.2    70.3    23.9
...
2023 12 06    20 21 58.1 +64 21 44   0.3189  1.0675    96.1    66.6    25.0
M. P. C. Staff               (C) Copyright 2023 MPC           M.P.E.C. 2023-V62
    
    
More information about the Iaude
mailing list